Location: Holmbach
(49.5093°N, 8.8411°E)
Time: 20:27:01
(UTC+00:00)

IRIDIUM 103 - Pass Details

Date: 17 June 2025
Orbit: 776 x 779 km, 86.4° (Epoch: 16 July)

Event Time Altitude Azimuth Distance (km) Brightness Sun altitude
Exits shadow 21:33:11 18° 164° (SSE) 1,838 5.6 -12.9°
Maximum altitude 21:37:00 61° 89° (E) 886 4.5 -13.2°
Drops below altitude 10° 21:42:10 10° 10° (N) 2,342 7.7 -13.5°
Sets 21:44:33 0° 7° (N) 3,274 8.6 -13.7°
